Flag for Germany Weather past 2 weeks in Neubrandenburg, Mecklenburg-Western Pomerania, Germany

Now
57 °F

Clear.


Feels Like: 57 °F
Forecast: 50 / 71 °F
Wind: 3 mph from East

Location: Greifswald

Current Time: Sep 2, 2014 at 11:00:25 PM

Latest Report: Sep 2, 2014 at 10:00 PM


Visibility: 16 mi

Pressure: 30.31 "Hg

Humidity: 90%

Dew point: 54 °F

Location of NeubrandenburgLocation

Historic Weather in Neubrandenburg — Graph

°F

Neubrandenburg temperature yesterday

Maximum temperature yesterday: 63 °F (at 11:00 AM)
Minimum temperature yesterday: 58 °F (at 9:00 PM)
Average temperature yesterday: 60 °F

Past Weeks' High & Low Weather Summary

 TemperatureHumidityPressure
High71 °F (Aug 28, 4:00 PM)99% (Aug 27, 7:00 AM)30.31 "Hg (Aug 27, 7:00 AM)
Low44 °F (Aug 26, 6:00 AM)35% (Aug 28, 4:00 PM)29.58 "Hg (Aug 18, 10:00 PM)
Average58 °F78%29.92 "Hg
* Reported Aug 18 10:00 PM — Sep 2 10:00 PM, Neubrandenburg, Weather by CustomWeather, © 2014

Note: Actual official high and low records may vary slightly from our data, if they occured in-between our weather recording intervals... More about our weather records

Advertising

Neubrandenburg weather history for previous 24 hours

 ConditionsComfort  
Time TempWeatherWind HumidityBarometerVisibility
10:00 PM
Sep 2
57 °FClear.3 mph90%30.31 "Hg16 mi
9:00 PM58 °FPassing clouds.5 mph84%30.30 "Hg16 mi
8:00 PM61 °FPassing clouds.6 mph79%30.29 "Hg19 mi
7:00 PM63 °FPassing clouds.7 mph74%30.28 "Hg19 mi
6:00 PM64 °FPassing clouds.7 mph71%30.27 "Hg19 mi
4:00 PM66 °FPassing clouds.9 mph67%30.25 "Hg25 mi
3:00 PM65 °FPassing clouds.7 mph66%30.24 "Hg25 mi
2:00 PM66 °FPassing clouds.7 mph70%30.24 "Hg19 mi
1:00 PM66 °FPassing clouds.7 mph63%30.24 "Hg22 mi
12:00 PM66 °FPassing clouds.7 mph57%30.23 "Hg25 mi
10:00 AM64 °FPassing clouds.6 mph73%30.21 "Hg22 mi
9:00 AM63 °FPassing clouds.5 mph83%30.19 "Hg16 mi
8:00 AM58 °FPassing clouds.5 mph95%30.18 "Hg11 mi
7:00 AM53 °FFog.2 mph99%30.17 "Hg9 mi
6:00 AM53 °FPassing clouds.1 mph98%30.16 "Hg9 mi
4:00 AM53 °FPassing clouds.1 mph97%30.15 "Hg5 mi
3:00 AM55 °FPassing clouds.1 mph96%30.15 "Hg10 mi
2:00 AM55 °FOvercast.1 mph97%30.15 "Hg11 mi
1:00 AM56 °FOvercast.1 mph95%30.14 "Hg12 mi
12:00 AM58 °FOvercast.2 mph95%30.14 "Hg9 mi
Weather by CustomWeather, © 2014

See weather overviewHow to use our weather pages